SWR9LV LSZH-EDDB

Flight info

Callsign SWR9LV
Flight time N/A
Altitude 36000
Route DEGES Z1 ETAGO DCT TIKNI/N0451F370 T279 TAMEB T278 KLF KLF1L
Aircraft A320/M-SDE3FGHIRWY/LB1

Departure

Time N/A
Airport Zürich Airport (LSZH)

Arrival

Time 2026-04-30 18:45
Airport Berlin Brandenburg Airport (EDDB)
Time Latitude Longitude Altitude Speed Heading
2026-04-30 17:39 48.52779 9.46220 34623 ft 418 kts
2026-04-30 17:41 48.75870 9.46736 36302 ft 410 kts 12°
2026-04-30 17:42 48.81497 9.48083 36305 ft 409 kts 12°
2026-04-30 17:43 48.95555 9.51434 36315 ft 409 kts 12°
2026-04-30 17:44 49.12424 9.55484 36323 ft 409 kts 12°
2026-04-30 17:47 49.37684 9.61620 36342 ft 409 kts 12°
2026-04-30 17:48 49.57356 9.66432 36352 ft 409 kts 12°
2026-04-30 17:50 49.79859 9.71969 36361 ft 409 kts 12°
2026-04-30 17:52 49.96726 9.76180 36372 ft 409 kts 12°
2026-04-30 17:54 50.21984 9.82519 36380 ft 409 kts 12°
2026-04-30 17:56 50.43545 9.91762 36387 ft 403 kts 41°
2026-04-30 17:58 50.55164 10.10894 36392 ft 404 kts 46°
2026-04-30 18:00 50.69028 10.38605 36423 ft 406 kts 59°
2026-04-30 18:01 50.75288 10.56860 36432 ft 406 kts 59°
2026-04-30 18:02 50.83296 10.80415 36443 ft 405 kts 59°
2026-04-30 18:04 50.91241 11.04000 36459 ft 404 kts 59°
2026-04-30 18:05 50.96487 11.19723 35722 ft 403 kts 60°
2026-04-30 18:06 51.01742 11.35513 34713 ft 405 kts 60°
2026-04-30 18:07 51.06958 11.51326 31868 ft 397 kts 60°
2026-04-30 18:08 51.11268 11.62288 30654 ft 384 kts 52°
2026-04-30 18:09 51.17637 11.75441 28154 ft 369 kts 52°
2026-04-30 18:10 51.23793 11.88210 25828 ft 358 kts 52°
2026-04-30 18:11 51.29748 12.00640 23778 ft 347 kts 52°
2026-04-30 18:11 51.34075 12.09726 22199 ft 338 kts 52°
2026-04-30 18:12 51.38318 12.18634 21423 ft 336 kts 52°
2026-04-30 18:13 51.41142 12.24605 21430 ft 336 kts 52°
2026-04-30 18:13 51.44884 12.32530 21436 ft 335 kts 52°
2026-04-30 18:14 51.48166 12.39490 21436 ft 335 kts 52°
2026-04-30 18:15 51.52370 12.48439 21350 ft 336 kts 52°
2026-04-30 18:15 51.56542 12.57361 20590 ft 331 kts 53°
2026-04-30 18:16 51.59291 12.63259 20125 ft 329 kts 53°
2026-04-30 18:16 51.62019 12.69114 19630 ft 325 kts 53°
2026-04-30 18:17 51.63373 12.72014 19394 ft 324 kts 53°
2026-04-30 18:17 51.64720 12.74904 19157 ft 322 kts 53°
2026-04-30 18:17 51.67396 12.80671 18681 ft 320 kts 53°
2026-04-30 18:18 51.68727 12.83542 18411 ft 319 kts 53°
2026-04-30 18:18 51.70052 12.86407 18146 ft 319 kts 53°
2026-04-30 18:18 51.71358 12.89238 17877 ft 318 kts 53°
2026-04-30 18:18 51.72695 12.92142 17609 ft 318 kts 53°
2026-04-30 18:19 51.74012 12.95002 17345 ft 318 kts 53°
2026-04-30 18:19 51.75310 12.97822 17080 ft 317 kts 53°
2026-04-30 18:19 51.76624 13.00676 16832 ft 317 kts 53°
2026-04-30 18:19 51.77937 13.03530 16576 ft 316 kts 53°
2026-04-30 18:20 51.79246 13.06384 16325 ft 316 kts 53°
2026-04-30 18:20 51.80550 13.09233 16064 ft 315 kts 53°
2026-04-30 18:20 51.81850 13.12076 15822 ft 314 kts 53°
2026-04-30 18:20 51.83147 13.14914 15576 ft 314 kts 53°
2026-04-30 18:21 51.84444 13.17753 15326 ft 313 kts 53°
2026-04-30 18:21 51.85735 13.20585 15088 ft 313 kts 53°
2026-04-30 18:21 51.87027 13.23421 14843 ft 313 kts 53°
2026-04-30 18:21 51.88315 13.26249 14569 ft 312 kts 53°
2026-04-30 18:22 51.89603 13.29083 14305 ft 312 kts 53°
2026-04-30 18:22 51.92167 13.34726 13670 ft 310 kts 53°
2026-04-30 18:22 51.93438 13.37530 13353 ft 308 kts 53°
2026-04-30 18:23 51.94701 13.40326 13041 ft 307 kts 53°
2026-04-30 18:23 51.95958 13.43115 12727 ft 305 kts 53°
2026-04-30 18:23 51.97209 13.45883 12418 ft 304 kts 52°
2026-04-30 18:23 51.98696 13.48289 12112 ft 302 kts 35°
2026-04-30 18:24 52.02675 13.49914 11503 ft 300 kts 357°
2026-04-30 18:24 52.04673 13.48936 11205 ft 303 kts 337°
2026-04-30 18:24 52.06346 13.46858 10910 ft 306 kts 317°
2026-04-30 18:25 52.07711 13.44223 10621 ft 303 kts 313°
2026-04-30 18:25 52.10164 13.38870 10242 ft 283 kts 311°
2026-04-30 18:25 52.11278 13.36364 9958 ft 267 kts 311°
2026-04-30 18:26 52.13432 13.31614 9038 ft 255 kts 311°
2026-04-30 18:26 52.14497 13.29296 8721 ft 255 kts 311°
2026-04-30 18:26 52.15561 13.26992 8405 ft 253 kts 311°
2026-04-30 18:27 52.17628 13.22374 7575 ft 252 kts 301°
2026-04-30 18:27 52.18212 13.19685 7134 ft 254 kts 282°
2026-04-30 18:28 52.17740 13.14063 6208 ft 252 kts 249°
2026-04-30 18:28 52.17094 13.11429 5762 ft 248 kts 249°
2026-04-30 18:28 52.15857 13.06324 5248 ft 240 kts 250°
2026-04-30 18:29 52.15244 13.03785 5245 ft 241 kts 250°
2026-04-30 18:29 52.13394 12.96167 5247 ft 241 kts 250°
2026-04-30 18:30 52.12363 12.91950 5246 ft 241 kts 250°
2026-04-30 18:30 52.10914 12.86017 5246 ft 242 kts 249°
2026-04-30 18:31 52.10287 12.83461 5242 ft 244 kts 249°
2026-04-30 18:31 52.09030 12.78329 5239 ft 244 kts 249°
2026-04-30 18:32 52.07822 12.73177 4974 ft 242 kts 260°
2026-04-30 18:32 52.07902 12.70509 4998 ft 238 kts 290°
2026-04-30 18:32 52.10131 12.66928 5040 ft 231 kts 340°
2026-04-30 18:33 52.11626 12.65960 5037 ft 232 kts 340°
2026-04-30 18:33 52.14737 12.65596 4773 ft 226 kts 19°
2026-04-30 18:33 52.16124 12.66742 4644 ft 224 kts 38°
2026-04-30 18:34 52.17231 12.68518 4520 ft 224 kts 53°
2026-04-30 18:34 52.18552 12.73108 4260 ft 225 kts 67°
2026-04-30 18:34 52.19132 12.75473 4134 ft 225 kts 67°
2026-04-30 18:35 52.19714 12.77837 4000 ft 225 kts 67°
2026-04-30 18:35 52.20287 12.80164 3986 ft 224 kts 67°
2026-04-30 18:35 52.20875 12.82557 4029 ft 225 kts 67°
2026-04-30 18:36 52.22028 12.87265 4039 ft 225 kts 67°
2026-04-30 18:36 52.22613 12.89666 4039 ft 225 kts 67°
2026-04-30 18:36 52.23763 12.94402 4035 ft 225 kts 67°
2026-04-30 18:37 52.24342 12.96779 4036 ft 226 kts 67°
2026-04-30 18:37 52.24914 12.99130 4031 ft 226 kts 67°
2026-04-30 18:37 52.25491 13.01508 4028 ft 226 kts 67°
2026-04-30 18:37 52.26076 13.03919 4032 ft 226 kts 67°
2026-04-30 18:38 52.26645 13.06271 4033 ft 226 kts 67°
2026-04-30 18:38 52.27231 13.08711 4039 ft 244 kts 68°
2026-04-30 18:38 52.27848 13.11311 4022 ft 241 kts 67°
2026-04-30 18:38 52.28446 13.13803 3814 ft 232 kts 67°
2026-04-30 18:39 52.29049 13.16293 3213 ft 240 kts 67°
2026-04-30 18:39 52.29650 13.18787 2820 ft 230 kts 67°
2026-04-30 18:39 52.30206 13.21096 2726 ft 208 kts 66°
2026-04-30 18:39 52.30708 13.23183 2671 ft 187 kts 66°
2026-04-30 18:40 52.31160 13.25061 2567 ft 170 kts 66°
2026-04-30 18:40 52.31564 13.26744 2502 ft 149 kts 66°
2026-04-30 18:40 52.31929 13.28264 2431 ft 139 kts 66°
2026-04-30 18:40 52.32283 13.29736 2364 ft 136 kts 66°
2026-04-30 18:41 52.32623 13.31149 2310 ft 135 kts 65°
2026-04-30 18:41 52.32966 13.32579 2170 ft 135 kts 66°
2026-04-30 18:41 52.33307 13.34003 2010 ft 134 kts 65°
2026-04-30 18:41 52.33647 13.35424 1839 ft 134 kts 66°
2026-04-30 18:42 52.33992 13.36865 1659 ft 134 kts 66°
2026-04-30 18:42 52.34662 13.39666 1302 ft 133 kts 66°
2026-04-30 18:42 52.34998 13.41074 1128 ft 133 kts 65°
2026-04-30 18:45 52.37297 13.51084 155 ft 19 kts 97°
2026-04-30 18:45 52.37292 13.51136 155 ft 0 kts 98°
2026-04-30 18:45 52.37292 13.51140 155 ft 0 kts 98°
2026-04-30 18:46 52.37290 13.51164 155 ft 8 kts 98°
2026-04-30 18:46 52.37280 13.51269 155 ft 9 kts 98°
2026-04-30 18:46 52.37264 13.51366 155 ft 8 kts 118°
2026-04-30 18:46 52.37219 13.51406 155 ft 7 kts 156°
2026-04-30 18:47 52.37177 13.51432 155 ft 6 kts 165°
2026-04-30 18:47 52.37140 13.51424 155 ft 5 kts 209°
2026-04-30 18:47 52.37114 13.51358 155 ft 8 kts 246°
2026-04-30 18:47 52.37096 13.51281 155 ft 7 kts 249°
2026-04-30 18:48 52.37079 13.51210 155 ft 6 kts 249°
2026-04-30 18:48 52.37063 13.51145 155 ft 6 kts 249°
2026-04-30 18:48 52.37049 13.51084 155 ft 6 kts 249°
2026-04-30 18:48 52.37033 13.51017 155 ft 7 kts 249°
2026-04-30 18:49 52.37013 13.50930 155 ft 8 kts 249°
2026-04-30 18:49 52.36993 13.50846 155 ft 8 kts 249°
2026-04-30 18:49 52.36974 13.50768 155 ft 7 kts 248°
2026-04-30 18:49 52.36957 13.50697 155 ft 7 kts 248°
2026-04-30 18:50 52.36936 13.50610 157 ft 10 kts 250°
2026-04-30 18:50 52.36913 13.50510 155 ft 9 kts 249°
2026-04-30 18:50 52.36892 13.50418 155 ft 8 kts 249°
2026-04-30 18:50 52.36871 13.50333 155 ft 8 kts 248°
2026-04-30 18:51 52.36851 13.50250 155 ft 8 kts 249°
2026-04-30 18:51 52.36816 13.50186 155 ft 7 kts 203°
2026-04-30 18:51 52.36767 13.50186 155 ft 7 kts 184°
2026-04-30 18:51 52.36700 13.50165 157 ft 10 kts 178°
2026-04-30 18:52 52.36639 13.50196 155 ft 10 kts 159°
2026-04-30 18:52 52.36579 13.50234 155 ft 9 kts 159°
2026-04-30 18:52 52.36515 13.50274 155 ft 9 kts 159°
2026-04-30 18:52 52.36499 13.50317 155 ft 6 kts 78°
2026-04-30 18:53 52.36515 13.50384 155 ft 7 kts 69°
2026-04-30 18:53 52.36531 13.50453 155 ft 6 kts 69°
2026-04-30 18:53 52.36540 13.50492 155 ft 2 kts 68°
2026-04-30 18:53 52.36541 13.50493 155 ft 0 kts 69°
2026-04-30 18:54 52.36541 13.50495 155 ft 0 kts 68°